Simultaneous Nadir Overpasses (SNOs) Predictions

Prediction of SNOs between GOES-16 and METOP-C Satellite Orbit:

Table of predicted SNOs for the next 14.0 days since TLE Epoch: 6/7/2019
Index Date Time (GOES-16) GOES-16 Lat,Lon METOP-C Lat,Lon Distance(km) Time Diff (sec)
1 06/08/2019 14:24:28 0.00, -75.20 -0.44, -73.16 232.19 80
2 06/10/2019 02:43:29 -0.00, -75.20 -0.55, -77.77 291.58 80
3 06/11/2019 02:20:10 -0.00, -75.21 0.54, -72.77 278.09 80
4 06/12/2019 14:41:42 0.01, -75.23 0.49, -77.33 239.95 80
5 06/13/2019 14:18:24 0.01, -75.23 -0.66, -72.34 330.12 80
6 06/15/2019 02:40:04 -0.01, -75.25 -0.38, -76.94 192.35 80
7 06/16/2019 02:16:44 -0.01, -75.26 0.71, -71.94 377.92 80
8 06/17/2019 14:38:18 0.00, -75.28 0.27, -76.51 139.41 80
9 06/18/2019 14:14:58 -0.00, -75.30 -0.82, -71.51 431.11 80
10 06/20/2019 02:36:39 0.00, -75.32 -0.20, -76.11 90.37 80
11 06/21/2019 02:13:20 0.01, -75.34 0.95, -71.12 480.54 80




NCC Satellite Simultaneous Nadir Overpasses (SNOs) Prediction Service
